Location: Barcelona
(41.3830°N, 2.1830°E)
Time: 14:37:46
(UTC+02:00)

ISS - Pass Details

Date: 26 March 2020
Orbit: 416 x 423 km, 51.6° (Epoch: 02 April)

Event Time Altitude Azimuth Distance (km) Brightness Sun altitude
Rises 19:49:33 0° 282° (WNW) 2,355 2.7 -8.1°
Reaches altitude 10° 19:52:09 10° 303° (WNW) 1,494 0.3 -8.6°
Maximum altitude 19:54:29 17° 347° (NNW) 1,130 -1.3 -9.0°
Drops below altitude 10° 19:56:49 10° 31° (NNE) 1,497 -1.1 -9.4°
Enters shadow 19:58:44 - 48° (NE) 2,112 -0.5 -9.8°
